Wind_Speed
20 20 20 21 22 22 21 20 20 20 21 21 20 20 21 20 20 20 20 20 20 20 19 19 20 20 19 19 19 19 19 19 19 19 19 19 19 19 19 19 19 18 18 18 17 17 17 17 16
19 19 20 21 21 21 20 20 20 21 21 22 22 22 22 22 21 21 21 21 22 21 21 21 21 21 21 21 21 20 20 21 21 21 21 21 21 21 21 20 20 20 20 19 19 19 18 18 18
20 20 21 21 21 21 20 20 21 22 23 23 22 23 23 23 23 23 22 22 22 23 23 23 23 22 23 23 23 23 22 23 23 23 23 23 23 23 22 22 22 22 21 21 21 20 20 19 19
21 21 22 22 21 21 21 20 21 22 23 23 24 24 24 24 24 24 24 24 24 24 24 25 24 24 24 24 24 24 24 24 25 25 25 25 25 25 25 24 24 24 23 22 22 22 21 21 20
21 22 23 22 21 21 20 20 21 22 22 23 24 24 24 25 25 25 26 26 26 26 26 26 26 26 26 26 26 26 26 26 26 26 26 26 26 26 26 26 26 26 25 24 24 24 23 22 22
22 23 23 23 22 22 22 22 22 22 22 23 24 24 24 26 26 26 27 27 28 27 28 28 28 28 28 28 28 28 28 28 28 28 28 27 28 27 27 27 27 27 27 26 26 26 24 23 23
23 23 23 23 23 23 23 23 23 23 23 23 24 25 25 26 26 27 28 29 29 29 29 29 29 29 29 30 30 30 30 30 29 30 30 29 29 29 29 29 29 28 28 27 27 27 26 26 25
23 23 23 23 23 23 24 24 24 24 24 25 25 25 25 26 27 27 28 30 31 30 30 30 30 30 30 30 31 32 32 32 32 32 31 31 31 31 31 30 30 30 29 29 29 28 28 28 27
23 23 23 23 23 23 24 25 25 26 26 26 26 26 26 27 28 29 29 30 31 31 31 31 32 32 32 32 32 33 33 34 34 34 33 33 33 33 32 32 32 31 31 31 30 30 29 29 29
23 23 23 23 23 24 25 25 25 26 27 27 28 27 27 28 29 30 30 31 31 32 32 32 32 33 34 34 34 34 34 35 35 35 35 35 35 35 34 34 34 33 33 33 33 32 31 31 31
23 24 24 24 24 25 26 26 27 27 28 29 30 30 29 29 30 30 31 32 33 33 33 34 34 34 35 35 35 35 35 36 36 37 37 36 36 37 36 36 35 35 35 35 35 34 34 34 33
25 25 25 25 26 26 27 28 28 29 29 31 32 32 31 32 32 32 32 33 34 34 35 35 35 35 36 36 36 36 37 37 37 38 38 39 38 38 38 37 37 36 37 37 36 36 35 35 34
25 26 27 27 28 28 28 29 30 30 31 32 33 33 33 33 34 34 34 34 35 35 35 36 36 37 37 37 38 38 39 39 39 39 39 39 39 39 39 39 39 38 38 38 38 37 37 36 36
26 27 28 29 29 29 29 30 31 31 33 34 35 35 35 35 35 36 36 36 36 36 36 37 37 38 38 39 39 40 40 40 40 40 41 40 40 39 38 39 40 40 40 40 39 39 38 38 38
27 27 28 30 30 30 31 31 32 33 33 34 35 36 36 36 37 37 37 37 37 37 38 38 38 39 39 40 40 40 40 41 41 42 42 41 41 40 40 40 40 40 40 40 40 41 40 40 40
27 28 29 29 31 32 32 32 33 34 34 34 35 36 37 38 38 38 38 38 38 39 39 40 40 40 40 40 40 41 41 42 42 42 43 43 43 42 42 42 42 42 42 42 42 42 42 42 42
27 28 29 29 30 32 33 34 34 35 36 36 36 37 38 39 39 39 39 39 39 40 40 41 41 41 41 41 41 41 42 43 43 43 43 43 43 43 44 44 44 44 44 44 43 43 43 44 43
27 28 29 30 31 33 34 35 35 36 36 37 37 38 38 39 40 40 40 40 41 41 41 41 42 42 42 42 42 42 42 43 44 44 44 44 44 44 45 45 46 46 45 45 45 45 45 45 45
29 30 31 32 33 34 34 35 36 36 37 37 38 39 39 39 40 41 41 41 42 42 42 41 41 42 43 43 44 44 43 44 44 45 44 45 45 45 45 46 47 46 46 46 46 47 47 47 47
30 31 32 33 33 35 36 36 37 37 38 38 38 39 39 40 40 40 41 41 42 42 42 42 42 42 44 44 45 45 45 45 45 45 45 45 46 46 46 46 46 46 46 46 47 47 48 48 47
32 32 33 34 34 36 37 37 37 37 38 38 38 39 39 39 40 40 40 41 41 42 43 44 43 43 43 44 45 46 46 46 46 46 46 46 47 47 46 46 46 46 47 47 47 47 48 48 48
32 33 34 35 36 36 37 39 37 37 37 37 38 39 39 40 40 41 41 42 42 42 43 44 44 44 44 44 45 46 47 47 47 48 48 48 48 48 48 48 48 48 48 48 48 48 48 48 48
32 33 34 35 36 37 37 39 38 37 37 37 38 39 39 40 41 41 42 43 43 43 43 44 45 46 46 46 46 46 47 47 48 49 49 49 49 48 48 49 50 50 50 50 50 50 49 49 50
32 32 34 35 36 37 36 38 38 36 36 37 37 38 39 40 41 41 42 43 43 44 44 45 46 47 47 47 47 47 48 48 48 49 49 49 50 50 49 49 50 51 52 52 52 52 51 51 51
31 32 33 35 36 36 36 37 37 36 36 36 37 37 38 39 40 41 42 43 44 45 46 46 46 47 49 49 49 49 49 49 50 50 50 50 51 51 51 51 51 52 52 53 53 53 53 53 53
31 32 33 35 36 36 36 37 37 36 36 36 37 38 38 39 40 41 42 43 44 45 46 47 48 48 49 50 50 50 51 51 51 51 51 51 51 51 51 52 52 52 53 53 54 54 53 54 55
31 31 32 34 36 36 36 37 37 36 36 36 37 38 39 40 41 42 42 42 43 44 46 47 47 48 49 50 50 51 51 52 52 52 52 52 53 52 52 52 53 54 54 55 55 55 55 55 55
31 31 32 34 36 37 37 37 37 36 36 37 37 37 38 39 40 41 41 42 43 43 44 45 46 47 48 49 49 50 51 52 52 53 53 53 53 53 53 53 54 54 54 55 55 56 56 56 56
31 31 32 34 35 37 38 37 37 37 37 37 37 36 36 37 38 39 40 41 42 42 43 44 45 46 47 48 48 49 50 51 51 52 53 53 53 53 53 53 54 54 54 55 55 55 56 56 57
31 31 31 33 34 35 37 37 37 37 37 37 37 38 37 38 38 39 39 40 40 41 42 43 44 45 46 47 48 48 49 50 51 52 52 53 53 54 54 54 55 55 55 56 56 56 56 57 57
Wind_Direction
240 239 239 238 238 238 239 240 241 241 242 243 246 249 251 251 253 252 251 250 250 249 250 250 251 250 250 251 251 251 251 251 251 251 252 254 256 256 255 255 254 253 252 252 251 251 249 249 248
239 239 240 240 242 242 241 241 243 243 246 247 248 250 251 251 253 253 251 251 252 252 252 252 252 252 252 252 253 253 254 253 252 253 252 253 254 254 255 255 254 253 252 253 253 252 252 250 249
240 240 241 242 243 244 243 242 245 247 248 250 250 251 251 251 252 253 252 252 252 252 253 254 253 254 254 254 255 255 256 256 254 254 254 254 254 254 253 254 254 254 253 254 254 253 252 251 251
241 242 243 244 244 245 245 245 247 249 249 250 251 252 252 252 252 252 253 253 252 253 254 255 254 254 255 255 255 255 256 256 256 255 255 255 255 254 253 253 254 254 254 255 255 255 253 252 251
243 245 246 246 247 247 247 246 248 248 249 249 250 252 252 253 254 254 255 254 253 253 254 254 255 255 255 255 255 255 256 256 255 255 255 255 255 254 254 253 253 254 255 255 255 255 254 252 250
248 249 249 250 251 250 250 249 249 250 250 250 251 251 252 253 254 254 254 254 254 254 254 254 255 256 256 256 256 256 256 256 255 254 254 254 254 254 253 252 253 254 254 254 254 255 254 252 252
250 251 252 253 253 252 252 252 252 253 253 253 254 254 254 254 255 255 254 255 255 255 255 255 255 255 256 255 256 257 256 256 256 254 254 254 254 254 253 253 253 253 253 253 253 254 253 253 254
252 252 253 254 255 254 253 254 255 254 255 255 256 257 258 257 257 258 258 257 257 256 255 255 256 256 256 256 256 257 257 256 257 254 253 253 253 253 253 254 253 252 252 253 252 251 251 252 252
252 253 253 255 255 256 255 256 257 256 256 257 257 258 260 260 260 260 261 260 260 258 257 256 256 257 257 257 258 257 256 257 257 256 254 254 254 253 254 254 253 253 253 252 252 252 251 251 251
253 254 255 256 257 257 258 258 259 259 258 259 261 262 262 263 263 262 262 262 262 261 260 259 258 258 257 257 257 257 256 256 256 256 255 254 254 253 253 253 253 253 253 253 253 252 252 252 251
256 257 256 257 258 258 259 259 260 260 261 262 263 263 263 264 264 263 263 262 262 262 261 259 258 257 257 257 257 257 258 257 257 257 256 255 254 254 253 254 253 253 253 254 254 253 253 253 252
257 257 257 258 260 260 260 260 260 261 262 263 263 264 264 265 266 265 265 264 263 262 261 259 259 258 258 258 257 257 257 257 257 257 258 256 256 255 255 255 254 254 254 255 255 254 253 253 252
258 259 259 259 260 261 261 261 262 262 264 264 264 264 265 265 265 266 265 264 263 262 262 261 260 259 259 258 258 258 258 258 257 257 257 257 257 257 256 255 255 255 255 254 254 253 253 254 254
259 260 260 261 262 262 262 262 262 263 264 264 265 266 266 265 265 265 265 264 263 262 261 261 260 260 259 259 259 260 260 259 258 258 257 257 257 257 257 257 255 255 255 254 253 253 254 255 254
261 261 261 262 263 264 264 262 263 264 265 265 265 266 266 266 266 265 265 264 263 263 261 261 260 260 259 259 260 260 261 261 259 259 258 258 258 258 257 257 257 256 256 255 254 254 255 255 253
263 263 263 264 264 264 264 264 264 265 266 266 266 266 266 266 266 265 264 263 263 263 262 262 260 259 259 259 260 260 261 261 260 259 258 259 258 257 257 257 257 257 256 256 256 256 255 254 253
265 265 265 265 265 265 265 265 265 266 267 267 267 267 267 266 266 265 264 264 264 263 263 262 260 258 259 259 260 260 261 260 260 260 259 259 259 259 258 258 258 258 257 256 256 256 254 253 253
269 268 267 267 267 266 267 267 266 267 267 268 268 268 268 267 266 265 264 264 263 263 262 261 260 258 258 258 259 260 261 260 260 260 261 261 260 260 259 258 259 258 257 256 255 256 255 253 254
271 270 269 269 269 269 268 269 268 268 268 268 269 268 268 268 267 266 265 264 263 262 261 260 259 258 258 258 259 260 260 261 260 260 261 261 260 260 260 259 259 259 258 257 256 256 255 255 255
272 271 272 272 272 272 272 271 271 271 270 269 269 269 268 268 268 267 266 265 264 262 260 259 259 259 258 258 259 259 260 260 260 260 260 260 260 259 259 259 258 257 257 257 257 256 256 255 255
273 274 274 275 275 273 273 273 273 273 272 271 269 269 269 268 268 268 267 266 265 263 261 260 259 258 259 259 259 259 260 260 260 260 260 260 260 260 259 259 258 257 256 256 256 256 256 255 255
274 276 277 277 277 276 275 275 274 274 273 272 270 270 269 268 268 267 267 266 264 262 261 260 259 259 259 260 260 260 260 260 260 261 261 261 260 261 260 259 259 258 257 257 257 256 256 256 256
276 277 278 278 278 277 276 277 277 276 275 274 272 271 270 269 268 268 267 266 264 262 261 260 259 259 260 261 261 261 261 260 260 260 261 261 260 261 260 259 258 258 258 257 257 257 257 257 257
277 278 279 278 279 279 279 279 278 278 278 276 274 273 272 271 270 268 267 266 264 263 261 261 260 260 260 261 261 261 260 260 260 261 261 261 261 261 260 260 259 258 258 257 257 258 258 258 258
280 281 281 280 280 281 281 280 280 280 279 278 276 276 274 273 271 270 269 268 266 265 263 262 261 261 260 261 262 261 260 260 261 261 261 261 261 261 261 261 260 259 259 259 258 258 258 258 258
283 282 282 282 282 283 282 281 281 281 280 279 278 277 275 274 272 271 271 269 268 267 266 264 263 262 261 261 262 262 261 261 262 262 261 261 261 261 262 262 261 260 260 260 260 259 258 259 258
283 282 283 283 284 284 283 282 282 282 282 281 280 279 277 276 274 273 272 270 269 268 267 266 265 263 262 262 262 262 262 262 262 263 262 261 261 261 262 262 261 261 261 260 260 260 259 259 258
282 284 285 284 284 285 284 284 284 283 283 282 282 281 280 279 278 277 274 272 270 269 269 268 267 266 264 263 263 263 263 262 263 263 263 262 261 261 262 262 262 262 261 261 260 260 260 258 257
283 284 285 285 284 285 286 286 286 286 286 286 285 284 283 282 281 279 277 275 274 272 270 270 269 268 266 265 265 264 263 263 263 263 263 263 262 262 262 261 262 262 262 261 261 261 260 259 259
284 284 285 285 285 286 287 287 287 287 287 287 286 285 284 283 282 281 280 278 276 274 273 272 271 270 269 267 265 265 264 264 264 264 264 263 263 263 262 261 261 262 262 262 261 261 260 259 258
Height
5808 5809 5810 5812 5814 5815 5816 5818 5819 5820 5821 5822 5823 5824 5825 5826 5828 5831 5830 5829 5829 5830 5831 5831 5832 5833 5833 5834 5834 5835 5836 5836 5837 5837 5838 5839 5839 5839 5840 5840 5841 5841 5842 5843 5843 5844 5844 5844 5845
5804 5806 5807 5808 5809 5811 5813 5814 5815 5816 5817 5818 5819 5820 5821 5821 5823 5824 5824 5825 5826 5827 5827 5828 5828 5829 5829 5830 5831 5831 5832 5833 5833 5834 5834 5835 5835 5836 5836 5837 5838 5838 5839 5839 5840 5841 5841 5842 5842
5801 5802 5804 5804 5805 5807 5810 5811 5812 5812 5813 5814 5815 5816 5816 5817 5818 5819 5820 5821 5822 5822 5823 5824 5824 5825 5825 5826 5827 5827 5828 5829 5829 5830 5830 5831 5831 5832 5833 5833 5834 5835 5835 5836 5836 5837 5838 5838 5839
5797 5798 5800 5801 5802 5804 5805 5807 5807 5808 5808 5809 5810 5811 5812 5813 5814 5815 5815 5816 5817 5818 5818 5819 5820 5820 5821 5821 5822 5823 5823 5824 5825 5825 5826 5826 5827 5828 5828 5829 5830 5831 5831 5832 5832 5833 5834 5834 5835
5793 5794 5795 5796 5798 5800 5801 5802 5802 5803 5804 5804 5805 5806 5807 5808 5809 5809 5810 5811 5812 5813 5813 5814 5815 5815 5816 5816 5817 5818 5818 5819 5820 5820 5821 5821 5822 5823 5824 5824 5825 5826 5827 5827 5828 5829 5829 5830 5831
5789 5790 5791 5792 5794 5796 5797 5797 5798 5799 5799 5800 5800 5801 5802 5803 5803 5804 5805 5805 5806 5807 5808 5809 5809 5810 5810 5811 5811 5812 5813 5813 5814 5815 5816 5816 5817 5818 5818 5819 5820 5821 5821 5822 5823 5824 5825 5826 5827
5785 5786 5787 5788 5790 5791 5792 5792 5793 5794 5795 5795 5795 5796 5796 5797 5798 5798 5799 5799 5800 5801 5802 5803 5803 5804 5804 5805 5806 5806 5806 5807 5808 5809 5809 5810 5811 5812 5813 5813 5814 5815 5816 5817 5818 5819 5820 5821 5822
5779 5782 5782 5783 5785 5786 5787 5787 5788 5789 5790 5790 5790 5791 5791 5792 5792 5793 5793 5793 5794 5794 5795 5796 5797 5797 5798 5798 5799 5799 5800 5800 5801 5802 5803 5803 5804 5805 5806 5807 5808 5809 5810 5811 5812 5813 5814 5815 5816
5774 5777 5777 5778 5780 5781 5781 5782 5783 5783 5784 5784 5785 5785 5786 5786 5786 5787 5787 5787 5787 5788 5788 5789 5790 5790 5791 5791 5792 5792 5792 5793 5794 5794 5795 5796 5797 5798 5799 5800 5801 5802 5803 5804 5805 5807 5808 5809 5810
5769 5770 5772 5773 5774 5775 5775 5776 5777 5777 5778 5778 5778 5779 5779 5779 5780 5780 5780 5780 5780 5781 5781 5781 5782 5782 5783 5783 5784 5784 5785 5785 5786 5787 5787 5788 5790 5791 5792 5793 5794 5795 5796 5798 5799 5800 5801 5802 5803
5764 5765 5766 5767 5768 5768 5769 5769 5770 5770 5771 5772 5772 5772 5772 5772 5772 5772 5772 5772 5773 5773 5773 5773 5774 5774 5775 5775 5776 5776 5777 5777 5778 5779 5779 5780 5781 5782 5784 5785 5786 5787 5788 5790 5791 5793 5794 5795 5796
5758 5759 5760 5761 5761 5762 5762 5763 5763 5763 5765 5765 5764 5764 5765 5765 5765 5765 5765 5765 5765 5765 5765 5765 5765 5766 5766 5766 5767 5768 5768 5769 5769 5770 5771 5772 5772 5773 5775 5777 5778 5779 5780 5781 5782 5784 5786 5787 5788
5752 5753 5753 5754 5754 5755 5755 5756 5756 5757 5757 5756 5756 5756 5757 5757 5756 5756 5756 5756 5756 5756 5756 5756 5757 5757 5757 5757 5758 5759 5759 5759 5760 5761 5761 5762 5764 5765 5766 5768 5769 5770 5771 5772 5773 5775 5777 5778 5780
5746 5746 5747 5747 5747 5748 5748 5749 5749 5749 5748 5748 5748 5748 5748 5748 5747 5747 5747 5747 5747 5747 5747 5747 5747 5748 5748 5748 5749 5749 5749 5750 5751 5751 5752 5753 5754 5755 5757 5758 5759 5761 5762 5763 5764 5766 5767 5769 5771
5739 5739 5740 5740 5740 5740 5740 5741 5741 5741 5740 5740 5739 5739 5738 5738 5738 5738 5738 5737 5737 5737 5737 5737 5738 5738 5738 5739 5739 5739 5739 5740 5741 5741 5742 5743 5744 5745 5747 5748 5749 5750 5752 5753 5754 5756 5758 5759 5761
5731 5732 5732 5733 5732 5732 5733 5733 5733 5732 5731 5731 5730 5729 5729 5728 5728 5727 5727 5727 5727 5727 5727 5727 5727 5728 5728 5729 5729 5729 5730 5730 5730 5731 5732 5733 5733 5735 5736 5738 5739 5740 5741 5743 5744 5746 5748 5749 5751
5724 5724 5725 5725 5724 5723 5723 5724 5724 5723 5722 5721 5721 5720 5719 5718 5717 5717 5717 5717 5717 5717 5717 5716 5716 5717 5718 5718 5719 5719 5719 5720 5720 5720 5721 5722 5723 5724 5725 5727 5728 5729 5730 5732 5733 5735 5737 5739 5740
5717 5717 5717 5716 5715 5715 5714 5714 5714 5713 5712 5711 5710 5709 5708 5707 5707 5706 5706 5705 5705 5705 5705 5705 5706 5706 5707 5707 5708 5709 5709 5709 5709 5710 5710 5711 5712 5713 5714 5715 5716 5718 5719 5721 5722 5724 5725 5727 5729
5709 5708 5708 5707 5706 5705 5704 5704 5703 5702 5702 5701 5699 5698 5697 5696 5695 5694 5694 5694 5694 5694 5694 5694 5695 5695 5696 5696 5697 5698 5698 5698 5699 5699 5699 5700 5701 5701 5702 5703 5705 5706 5708 5709 5710 5712 5714 5715 5717
5700 5699 5699 5698 5697 5696 5694 5693 5693 5691 5690 5689 5688 5687 5685 5685 5684 5683 5683 5682 5682 5682 5682 5683 5684 5684 5684 5685 5685 5686 5686 5687 5687 5687 5688 5688 5689 5689 5690 5691 5693 5694 5696 5697 5698 5700 5701 5703 5705
5691 5691 5690 5689 5687 5685 5684 5683 5682 5680 5679 5678 5676 5675 5674 5673 5672 5672 5671 5671 5671 5670 5671 5671 5672 5672 5672 5672 5673 5674 5674 5675 5675 5676 5676 5676 5676 5677 5678 5679 5680 5682 5684 5685 5687 5688 5690 5691 5693
5683 5682 5680 5678 5676 5674 5673 5670 5671 5669 5668 5667 5665 5664 5663 5662 5661 5660 5659 5659 5658 5658 5658 5658 5659 5660 5660 5660 5660 5661 5662 5663 5663 5663 5663 5664 5664 5664 5665 5666 5668 5669 5671 5673 5674 5676 5677 5679 5680
5673 5672 5670 5668 5665 5663 5661 5658 5660 5658 5657 5656 5654 5653 5652 5650 5649 5648 5647 5646 5646 5646 5646 5646 5647 5647 5648 5648 5649 5649 5649 5650 5650 5651 5651 5651 5651 5652 5652 5654 5655 5656 5658 5660 5661 5663 5665 5666 5668
5664 5662 5660 5657 5654 5652 5651 5648 5647 5647 5646 5644 5643 5641 5639 5638 5637 5636 5635 5634 5634 5634 5634 5634 5634 5635 5635 5636 5636 5636 5636 5637 5637 5638 5638 5638 5639 5639 5640 5641 5642 5643 5645 5647 5648 5650 5651 5653 5654
5654 5653 5649 5646 5643 5642 5641 5637 5637 5636 5635 5633 5631 5629 5627 5626 5625 5624 5623 5622 5621 5621 5621 5621 5621 5622 5622 5622 5622 5623 5623 5623 5624 5625 5625 5625 5626 5626 5627 5628 5629 5630 5631 5633 5634 5636 5638 5639 5641
5645 5643 5640 5636 5634 5632 5630 5627 5628 5626 5624 5621 5620 5618 5616 5614 5613 5611 5610 5609 5609 5608 5608 5608 5608 5608 5608 5609 5609 5609 5609 5610 5610 5611 5611 5611 5612 5613 5613 5614 5615 5616 5617 5618 5620 5621 5623 5625 5626
5635 5632 5631 5628 5624 5621 5619 5618 5617 5615 5613 5611 5609 5606 5604 5603 5601 5599 5598 5597 5596 5595 5595 5594 5594 5594 5594 5594 5595 5595 5595 5595 5596 5596 5596 5597 5598 5598 5599 5600 5601 5602 5603 5603 5605 5606 5608 5610 5611
5626 5623 5621 5617 5613 5610 5609 5607 5607 5604 5602 5600 5597 5595 5593 5591 5589 5587 5585 5584 5583 5582 5582 5581 5580 5580 5580 5580 5580 5581 5581 5581 5581 5581 5582 5582 5583 5584 5585 5585 5586 5587 5588 5589 5589 5591 5592 5594 5596
5617 5614 5610 5607 5604 5601 5598 5600 5597 5594 5591 5589 5586 5583 5581 5579 5577 5575 5573 5572 5571 5570 5569 5568 5567 5566 5566 5566 5566 5566 5566 5566 5567 5566 5567 5567 5568 5568 5569 5570 5571 5571 5572 5573 5574 5575 5576 5578 5580
5606 5604 5601 5599 5595 5591 5589 5591 5586 5583 5580 5577 5575 5572 5570 5568 5566 5563 5561 5560 5558 5557 5556 5555 5554 5553 5552 5552 5552 5552 5552 5552 5552 5552 5552 5552 5553 5553 5554 5554 5555 5556 5556 5557 5558 5559 5561 5562 5564